[[{"header":{"parameterUnit":"m.s-1","parameterCategory":1,"la1":30.2991,"la2":30.254,"lo1":-89.0895,"lo2":-89.0444,"dy":0.0017,"dx":0.0017,"nx":28,"ny":28,"refTime":"2023-09-04T09:00:00:Z","depth":0,"parameterNumber":2,"parameterNumberName":"U-component_of_WINDS"},"data":[0,0,0,0,0,0,0,0,0,0,0,0,0,0,0,0,0,0,0,0,0,0,0,0,0,0,0,0,0,0,0,0,0,0,0,0,0,0,0,0,0,0,0,0,0,0,0,0,0,0,0,0,0,0,0,0,0,0,-4.4474,-4.4474,0,-4.4471,-4.4471,-4.4471,-4.4408,-4.4406,-4.4405,-4.4403,-4.44,-4.4401,-4.4402,0,0,0,0,0,0,0,0,0,0,0,0,0,-4.4426,-4.4427,-4.4474,-4.4474,-4.4474,-4.4471,-4.4471,-4.4471,-4.4408,-4.4406,-4.4404,-4.4402,-4.4399,-4.4401,-4.4403,0,0,0,0,0,0,0,0,0,0,0,0,0,-4.4437,-4.4428,-4.4474,-4.4442,-4.4439,-4.4471,-4.4471,-4.4471,-4.4408,-4.4406,-4.4404,-4.4401,-4.4399,-4.4401,-4.4403,-4.4464,0,0,-4.4409,-4.441,0,0,0,0,0,0,0,0,-4.4437,-4.4439,-4.4447,-4.4445,-4.4441,-4.4437,-4.4453,-4.4469,-4.4409,-4.442,-4.4403,-4.44,-4.4414,-4.4415,-4.442,-4.4464,-4.4464,-4.4409,-4.4411,-4.4412,-4.4412,0,0,0,0,0,0,0,-4.4436,-4.4439,-4.4473,-4.4447,-4.4444,-4.4428,-4.4427,-4.4455,-4.4431,-4.4419,-4.4414,-4.4415,-4.4412,-4.4418,-4.4419,-4.4464,-4.4409,-4.4411,-4.4413,-4.4413,-4.4559,-4.4561,0,0,0,0,0,0,-4.444,-4.4439,-4.4473,-4.4473,-4.4433,-4.4431,-4.443,-4.4441,-4.443,-4.4426,-4.4417,-4.4412,-4.4415,-4.4417,-4.4419,-4.4489,-4.4412,-4.4414,-4.4415,-4.4556,-4.4559,-4.4562,0,0,0,0,0,0,-4.4439,-4.4443,-4.4473,-4.4454,-4.4457,-4.4435,-4.4448,-4.4442,-4.4448,-4.4429,-4.4424,-4.4427,-4.4413,-4.4416,-4.4453,-4.4488,-4.4415,-4.4416,-4.4553,-4.4557,-4.4561,-4.463,0,0,0,0,0,0,-4.4438,-4.4443,-4.4466,-4.4455,-4.4458,-4.4508,-4.445,-4.4444,-4.4451,-4.4445,-4.4437,-4.4433,-4.4412,-4.4451,-4.4456,-4.4489,-4.4418,-4.455,-4.4555,-4.456,-4.4625,-4.4636,-4.4646,0,0,0,0,0,-4.4436,-4.4486,-4.4468,-4.4472,-4.4486,-4.451,-4.4511,-4.4485,-4.4455,-4.4477,-4.4465,-4.4434,-4.4484,-4.4455,-4.446,-4.4495,-4.4548,-4.4554,-4.4559,-4.462,-4.4634,-4.4645,0,0,0,0,0,0,-4.4501,-4.4484,-4.4463,-4.4511,-4.4512,-4.4499,-4.4526,-4.4501,-4.4511,-4.4504,-4.4472,-4.4471,-4.4513,-4.4508,-4.4476,-4.4554,-4.451,-4.4517,-4.4555,-4.4568,-4.4578,-4.4577,-4.442,0,0,0,0,0,-4.4521,-4.4541,-4.4525,-4.4569,-4.4571,-4.4549,-4.4558,-4.4538,-4.4538,-4.4538,-4.4529,-4.453,-4.4546,-4.4557,-4.4571,-4.4625,-4.4622,-4.4652,-4.4662,-4.4671,-4.4676,-4.4704,-4.4716,-4.4581,-4.4581,-4.4581,0,0,-4.4561,-4.4555,-4.4569,-4.4582,-4.458,-4.4602,-4.455,-4.4575,-4.459,-4.4542,-4.4576,-4.4571,-4.457,-4.4616,-4.4635,-4.4613,-4.4714,-4.4678,-4.4686,-4.4686,-4.4711,-4.4724,-4.4735,-4.4585,-4.4585,-4.4584,0,0,-4.4646,-4.4644,-4.4679,-4.468,-4.4679,-4.4664,-4.4673,-4.4664,-4.4658,-4.4693,-4.4657,-4.4676,-4.4704,-4.4704,-4.4709,-4.4796,-4.4767,-4.4802,-4.4855,-4.4882,-4.4893,-4.4902,-4.4931,-4.4942,-4.4809,-4.4809,-4.4809,0,-4.4696,-4.4727,-4.4701,-4.4728,-4.4734,-4.4693,-4.4729,-4.473,-4.4734,-4.4739,-4.4715,-4.475,-4.4746,-4.4791,-4.4813,-4.4818,-4.4827,-4.4801,-4.4894,-4.4903,-4.4911,-4.4938,-4.495,-4.4813,-4.4812,-4.4812,-4.4812,0,-4.4789,-4.4811,-4.484,-4.4844,-4.4855,-4.4886,-4.4864,-4.4878,-4.4858,-4.4847,-4.4882,-4.4878,-4.4889,-4.4899,-4.488,-4.4942,-4.4928,-4.4899,-4.4854,-4.4928,-4.4953,-4.4964,-4.4819,-4.4817,-4.4816,-4.4815,0,0,-4.491,-4.4901,-4.4912,-4.4914,-4.4911,-4.4927,-4.4958,-4.4969,-4.4981,-4.4986,-4.5009,-4.5036,-4.5009,-4.5014,-4.4996,-4.502,-4.5087,-4.4988,-4.4987,-4.5004,-4.5153,-4.5172,-4.5184,-4.507,-4.5071,-4.5073,-4.5152,0,-4.499,-4.504,-4.5018,-4.507,-4.509,-4.5053,-4.5079,-4.508,-4.5071,-4.5087,-4.5077,-4.5095,-4.506,-4.5062,-4.5085,-4.5074,-4.5116,-4.5069,-4.5089,-4.509,-4.5087,-4.5198,-4.5218,-4.5292,-4.5162,-4.5164,-4.5165,0,-4.5089,-4.5098,-4.5152,-4.5146,-4.5153,-4.5177,-4.5186,-4.5202,-4.5203,-4.5195,-4.5201,-4.5177,-4.5206,-4.5165,-4.5204,-4.5172,-4.518,-4.5177,-4.5179,-4.5177,-4.513,-4.5196,-4.5316,-4.5326,-4.518,-4.5179,-4.5178,0,-4.5169,-4.5195,-4.523,-4.5233,-4.5228,-4.5245,-4.5244,-4.5242,-4.5251,-4.526,-4.5265,-4.5277,-4.5283,-4.5293,-4.5273,-4.5245,-4.5315,-4.5272,-4.5307,-4.5308,-4.5321,-4.5319,-4.544,-4.5332,-4.5331,-4.5331,-4.5331,0,-4.5258,-4.5292,-4.5266,-4.5288,-4.5325,-4.5301,-4.5338,-4.5333,-4.5332,-4.5352,-4.5322,-4.5341,-4.5315,-4.5332,-4.5317,-4.5351,-4.5355,-4.5348,-4.5343,-4.5349,-4.5349,-4.5351,-4.5344,-4.5334,-4.5334,-4.5333,-4.5332,0,-4.5352,-4.5337,-4.5372,-4.5365,-4.5364,-4.5391,-4.5384,-4.5404,-4.5394,-4.5419,-4.5424,-4.5408,-4.5426,-4.5409,-4.5426,-4.5416,-4.5461,-4.545,-4.546,-4.5456,-4.5491,-4.5487,-4.5615,-4.5629,-4.5514,-4.5515,-4.5516,0,-4.5408,-4.5434,-4.5429,-4.544,-4.5441,-4.5459,-4.5468,-4.5446,-4.5457,-4.546,-4.548,-4.5496,-4.5507,-4.5538,-4.5527,-4.5541,-4.5528,-4.5572,-4.553,-4.5535,-4.5526,-4.5523,-4.5525,-4.5579,-4.5581,-4.5582,-4.5583,0,-4.5509,-4.5501,-4.5515,-4.5527,-4.5538,-4.5546,-4.5552,-4.5563,-4.5541,-4.5554,-4.5573,-4.5581,-4.56,-4.5615,-4.5626,-4.5624,-4.5599,-4.5597,-4.5605,-4.561,-4.5614,-4.5609,-4.548,-4.5593,-4.5592,-4.5591,-4.5591,-4.559,-4.5584,-4.5605,-4.5605,-4.5622,-4.5624,-4.5631,-4.5648,-4.5641,-4.5656,-4.5669,-4.5656,-4.5678,-4.5679,-4.569,-4.5692,-4.5709,-4.569,-4.5703,-4.5706,-4.5709,-4.5713,-4.5614,-4.5711,-4.5711,-4.5711,-4.571,-4.571,0,-4.5681,-4.568,-4.5696,-4.5705,-4.5719,-4.5696,-4.5702,-4.5714,-4.5734,-4.5738,-4.575,-4.5771,-4.5787,-4.5779,-4.5792,-4.5807,-4.5796,-4.5811,-4.5808,-4.5808,-4.573,-4.572,-4.582,-4.582,-4.582,-4.582,-4.582,-4.582,-4.5733,-4.5766,-4.5758,-4.5792,-4.5791,-4.5812,-4.5817,-4.5823,-4.5826,-4.5851,-4.5864,-4.5859,-4.5857,-4.5871,-4.5884,-4.5881,-4.5887,-4.5905,-4.5898,-4.5824,-4.5814,-4.5803,-4.5793,-4.5907,-4.5907,-4.5974,-4.5975,-4.5976]},{"header":{"parameterUnit":"m.s-1","parameterCategory":1,"la1":30.2991,"la2":30.254,"lo1":-89.0895,"lo2":-89.0444,"dy":0.0017,"dx":0.0017,"nx":28,"ny":28,"refTime":"2023-09-04T09:00:00:Z","depth":0,"parameterNumber":3,"parameterNumberName":"V-component_of_WINDS"},"data":[0,0,0,0,0,0,0,0,0,0,0,0,0,0,0,0,0,0,0,0,0,0,0,0,0,0,0,0,0,0,0,0,0,0,0,0,0,0,0,0,0,0,0,0,0,0,0,0,0,0,0,0,0,0,0,0,0,0,4.1056,4.1056,0,4.1071,4.1072,4.1072,4.1008,4.1006,4.1004,4.1002,4.1015,4.1017,4.102,0,0,0,0,0,0,0,0,0,0,0,0,0,4.0968,4.097,4.1056,4.1056,4.1056,4.1071,4.1072,4.1072,4.1008,4.1006,4.1004,4.1002,4.1015,4.1017,4.102,0,0,0,0,0,0,0,0,0,0,0,0,0,4.0997,4.0971,4.1056,4.1026,4.1024,4.1071,4.1072,4.1072,4.1009,4.1006,4.1003,4.1,4.1014,4.1017,4.102,4.1096,0,0,4.103,4.1031,0,0,0,0,0,0,0,0,4.0996,4.1,4.103,4.1028,4.1026,4.1035,4.1045,4.108,4.1009,4.1014,4.1002,4.0999,4.1024,4.1026,4.1035,4.1096,4.1097,4.103,4.1032,4.1033,4.1034,0,0,0,0,0,0,0,4.0994,4.0999,4.1062,4.1031,4.1028,4.1012,4.1013,4.1052,4.1035,4.1014,4.1009,4.1012,4.1022,4.1032,4.1035,4.1097,4.103,4.1033,4.1035,4.1036,4.1221,4.1224,0,0,0,0,0,0,4.0996,4.0998,4.1061,4.1062,4.1004,4.1015,4.1017,4.1035,4.1034,4.1031,4.1014,4.1009,4.1028,4.1031,4.1035,4.1123,4.1033,4.1036,4.1038,4.1218,4.1222,4.1225,0,0,0,0,0,0,4.0994,4.1002,4.1061,4.1029,4.1035,4.102,4.1041,4.1037,4.1046,4.1035,4.1031,4.1028,4.1026,4.1031,4.1081,4.1123,4.1038,4.104,4.1214,4.1219,4.1223,4.13,0,0,0,0,0,0,4.0992,4.1002,4.1031,4.103,4.1037,4.1107,4.1043,4.1039,4.1053,4.1046,4.1046,4.1044,4.1024,4.1077,4.1085,4.1125,4.1043,4.1211,4.1217,4.1222,4.1294,4.1307,4.1318,0,0,0,0,0,4.0989,4.1051,4.1033,4.1041,4.1073,4.111,4.1114,4.1091,4.1056,4.1085,4.1077,4.1044,4.1118,4.1083,4.1091,4.1133,4.1208,4.1215,4.1222,4.1288,4.1304,4.1318,0,0,0,0,0,0,4.1055,4.105,4.103,4.1094,4.1103,4.1099,4.1134,4.1108,4.1127,4.1119,4.1089,4.109,4.1146,4.1145,4.1106,4.1206,4.1157,4.1165,4.1205,4.122,4.1231,4.123,4.1045,0,0,0,0,0,4.1078,4.1109,4.1103,4.1159,4.1165,4.115,4.1164,4.1146,4.1154,4.1157,4.1153,4.1162,4.1186,4.1203,4.1225,4.1294,4.1293,4.1327,4.134,4.1349,4.1357,4.1393,4.1407,4.1247,4.1247,4.1247,0,0,4.1123,4.1125,4.1146,4.1173,4.1178,4.121,4.1153,4.1189,4.1212,4.1162,4.121,4.1208,4.1215,4.1275,4.1301,4.1276,4.1401,4.1358,4.1366,4.1368,4.1401,4.1416,4.143,4.1252,4.1251,4.1251,0,0,4.1223,4.1228,4.1275,4.1282,4.1291,4.128,4.1292,4.1293,4.129,4.1338,4.1301,4.1328,4.1372,4.1378,4.1387,4.1492,4.1461,4.15,4.1562,4.1597,4.161,4.1621,4.1657,4.1671,4.1508,4.1508,4.1508,0,4.1278,4.1326,4.1303,4.1342,4.1355,4.1313,4.1361,4.1368,4.1384,4.1393,4.1365,4.142,4.1422,4.1482,4.1508,4.1517,4.1529,4.1499,4.161,4.1621,4.1631,4.1665,4.1679,4.1512,4.1512,4.1511,4.1511,0,4.1393,4.1427,4.1464,4.1482,4.1499,4.1542,4.1525,4.1545,4.1527,4.1519,4.1568,4.1569,4.1591,4.1605,4.1586,4.1663,4.1647,4.1616,4.1564,4.1651,4.1682,4.1695,4.1519,4.1517,4.1516,4.1515,0,0,4.1531,4.1538,4.1552,4.1559,4.1567,4.1592,4.1634,4.1657,4.1674,4.1687,4.172,4.176,4.1731,4.1741,4.1723,4.1755,4.1836,4.1719,4.1718,4.1739,4.192,4.1943,4.1959,4.1817,4.182,4.1822,4.1919,0,4.1628,4.17,4.1682,4.1753,4.1784,4.1746,4.1782,4.1791,4.1785,4.181,4.1803,4.1831,4.1791,4.1797,4.1827,4.182,4.1872,4.1813,4.1847,4.1848,4.1844,4.1975,4.1999,4.2091,4.1932,4.1934,4.1935,0,4.175,4.1769,4.1844,4.1847,4.186,4.1893,4.1912,4.1937,4.1946,4.194,4.1953,4.1929,4.1969,4.192,4.1975,4.1935,4.1948,4.1947,4.195,4.1951,4.1895,4.1978,4.212,4.2133,4.1955,4.1953,4.1952,0,4.1842,4.1886,4.1937,4.1945,4.1951,4.1975,4.1978,4.1985,4.2,4.2017,4.2027,4.2048,4.206,4.2077,4.2059,4.2025,4.2116,4.2066,4.2111,4.2112,4.213,4.2129,4.2274,4.2142,4.2142,4.2141,4.2141,0,4.1951,4.1997,4.1979,4.2009,4.2061,4.204,4.2091,4.209,4.2096,4.2126,4.2095,4.2123,4.2099,4.2125,4.2112,4.2158,4.2164,4.2159,4.2155,4.2161,4.2162,4.2167,4.216,4.2145,4.2144,4.2143,4.2143,0,4.2061,4.2051,4.2103,4.2106,4.2107,4.2145,4.2146,4.2175,4.2168,4.2206,4.2213,4.2202,4.2231,4.2216,4.2246,4.2237,4.2297,4.2285,4.2295,4.2291,4.2336,4.2332,4.249,4.2509,4.2365,4.2367,4.2368,0,4.213,4.2166,4.2173,4.2191,4.2197,4.2227,4.2243,4.2224,4.2241,4.2255,4.2282,4.2308,4.2328,4.2376,4.237,4.2393,4.238,4.2434,4.2383,4.2388,4.2379,4.2376,4.2379,4.2443,4.2445,4.2446,4.2447,0,4.2254,4.2247,4.2272,4.2296,4.2316,4.2333,4.2348,4.2364,4.2346,4.2367,4.2397,4.2413,4.2444,4.2471,4.2491,4.2493,4.2467,4.2464,4.2475,4.2481,4.2485,4.2482,4.2321,4.246,4.2458,4.2458,4.2457,4.2456,4.2344,4.2374,4.2384,4.2413,4.2423,4.2437,4.2464,4.2462,4.2487,4.2512,4.2499,4.2534,4.2543,4.2567,4.2573,4.2599,4.2578,4.2595,4.2599,4.2603,4.2608,4.2482,4.2603,4.2603,4.2602,4.2602,4.2602,0,4.2465,4.247,4.2497,4.2519,4.2542,4.2518,4.2533,4.2554,4.2585,4.2596,4.2618,4.2652,4.2678,4.2675,4.2699,4.2721,4.2709,4.2727,4.2724,4.2725,4.2627,4.2614,4.2736,4.2736,4.2736,4.2736,4.2736,4.2736,4.253,4.258,4.2575,4.2628,4.2633,4.2668,4.2679,4.2692,4.2701,4.2741,4.2763,4.2762,4.2767,4.2791,4.2814,4.2812,4.2822,4.2844,4.2838,4.2746,4.2732,4.2719,4.2707,4.2847,4.2847,4.2934,4.2935,4.2935]}]]